Content
SEND FEEDBACK

Daily
Averages
Monthly
Summary
United States of America

ST. LOUIS - SAINT LOUIS UNIVERSITY, MISSOURI


Home > North America > United States > Missouri
Elevation: 580 feet     Latitude: 38 38N     Longitude: 090 14W

WEATHER
 
SELECT A DAY
Number of Records: 188,449;   Date Range: 1/1/95 - 9/30/14
 
SHARE

PRINT THIS DATA

[ ← Previous Day ]
WEATHER ALMANAC - JANUARY 11, 2013
[ Next Day → ]
[ °C ]   °F
Weather ElementAverageHighLow
Temperature56.1 °F63 °F (2:53 pm)50 °F (7:53 am)
Dewpoint47.2 °F52 °F (1:53 am)45 °F (6:53 am)
Humidity72.8 %87 % (1:53 am)58 % (2:53 pm)
Barometer29.83 in29.89 in (8:53 am)29.79 in (4:53 pm)
Wind Speed8.9 mph15 mph (3:53 pm)
Wind Gust21.9 mph (12:53 pm)
Weather ElementAverage
Visibility10 mi
Wind DirectionSSW (187.8 °)

Weather ElementTotal
Precipitation0.01 in
Heating Degree Days8.5 (Base 65)
Growing Degree Days6.5 (Base 50)
Averaged from 23 records on January 11, 2013
WEATHER CONDITIONS BREAKOUT
WIND DIRECTION BREAKOUT
WEATHER BY HOUR - JANUARY 11, 2013
[ °C ]   °F
Local TimeTemperatureDewpointHumidityBarometerVisibilityWind DirectionWind SpeedGust SpeedPrecipitationEventsConditions
1:53 AM55.9 °F52.0 °F87 %29.82 in10.0 miSSW (210°)5.8 mphOvercast
2:53 AM55.0 °F50.0 °F83 %29.82 in10.0 miSW (220°)5.8 mphOvercast
3:53 AM55.0 °F48.0 °F77 %29.83 in10.0 miSW (220°)6.9 mphMostly Cloudy
4:53 AM53.1 °F46.9 °F80 %29.83 in10.0 miSW (220°)6.9 mphPartly Cloudy
5:53 AM52.0 °F46.0 °F80 %29.84 in10.0 miSW (220°)9.2 mph16.1 mphPartly Cloudy
6:53 AM51.1 °F45.0 °F80 %29.86 in10.0 miSouth (190°)5.8 mphScattered Clouds
7:53 AM50.0 °F45.0 °F83 %29.88 in10.0 miSouth (190°)4.6 mphOvercast
8:53 AM52.0 °F46.0 °F80 %29.89 in10.0 miSouth (170°)4.6 mphPartly Cloudy
9:53 AM55.0 °F46.0 °F72 %29.88 in10.0 miSouth (190°)10.4 mphClear
10:53 AM55.9 °F46.9 °F72 %29.87 in10.0 miSouth (190°)9.2 mph16.1 mphClear
11:53 AM59.0 °F48.0 °F67 %29.84 in10.0 miSSE (160°)12.7 mph20.7 mph0.01 inClear
12:53 PM60.1 °F48.0 °F64 %29.83 in10.0 miSouth (190°)13.8 mph21.9 mphClear
1:53 PM62.1 °F48.0 °F60 %29.80 in10.0 miSouth (170°)9.2 mph18.4 mphClear
2:53 PM63.0 °F48.0 °F58 %29.81 in10.0 miSouth (180°)12.7 mphClear
3:53 PM62.1 °F46.9 °F58 %29.80 in10.0 miSouth (170°)15.0 mph19.6 mphClear
4:53 PM59.0 °F46.9 °F64 %29.79 in10.0 miSouth (170°)15.0 mph21.9 mphClear
5:53 PM57.0 °F46.9 °F69 %29.81 in10.0 miSouth (170°)10.4 mph19.6 mphClear
6:53 PM55.0 °F46.0 °F72 %29.83 in10.0 miSouth (180°)8.1 mphClear
7:53 PM54.0 °F46.9 °F77 %29.82 in10.0 miSSE (160°)8.1 mphClear
8:53 PM54.0 °F46.9 °F77 %29.83 in10.0 miSouth (170°)6.9 mphClear
9:53 PM55.0 °F46.9 °F74 %29.82 in10.0 miSouth (190°)8.1 mph
10:53 PM57.0 °F48.0 °F72 %29.83 in10.0 miSSW (200°)9.2 mph
11:53 PM57.0 °F46.9 °F69 %29.83 in10.0 miSouth (190°)6.9 mph
Hourly data recorded from KCPS, located miles away from St. Louis - Saint Louis University, Missouri







STORIES FROM OUR PARTNERS